Home   Weather   San Antonio   Past weeks
Flag for USA

Past Weather in San Antonio, Texas, USA — August 2012

Now
52 °F

Overcast.


Feels Like: 49 °F
Forecast: 47 / 57 °F
Wind: 9 mph from Northeast

Location: San Antonio International Airport

Current Time: Nov 18, 2018 at 6:58:05 pm

Latest Report: Nov 18, 2018 at 5:51 pm


Visibility: 10 mi

Pressure: 30.14 "Hg

Humidity: 64%

Dew Point: 40 °F

Location of San AntonioLocation

August 2012 Weather in San Antonio — Graph

°F

High & Low Weather Summary for August 2012

 TemperatureHumidityPressure
High102 °F (Aug 10, 2:53 pm)97% (Aug 19, 3:53 am)30.11 "Hg (Aug 19, 3:53 am)
Low71 °F (Aug 20, 5:53 am)22% (Aug 15, 4:53 pm)29.66 "Hg (Aug 30, 4:53 pm)
Average86 °F59%29.88 "Hg
* Reported Aug 1 12:53 am — Aug 31 11:53 pm, San Antonio. Weather by CustomWeather, © 2018

Note: Actual official high and low records may vary slightly from our data, if they occured in-between our weather recording intervals... More about our weather records

Advertising

San Antonio Weather History for August 1, 2012

Scroll right to see more
 ConditionsComfort  
Time TempWeatherWind HumidityBarometerVisibility
12:53 am
Wed, Aug 1
83 °FPassing clouds.15 mph59%29.94 "Hg10 mi
1:53 am80 °FPassing clouds.8 mph67%29.93 "Hg10 mi
2:53 am80 °FPassing clouds.9 mph71%29.93 "Hg10 mi
3:53 am78 °FPassing clouds.6 mph76%29.93 "Hg10 mi
4:53 am78 °FPassing clouds.6 mph79%29.93 "Hg10 mi
5:53 am77 °FPassing clouds.7 mph82%29.93 "Hg10 mi
6:53 am77 °FPassing clouds.7 mph82%29.94 "Hg10 mi
7:53 am78 °FPartly sunny.6 mph79%29.95 "Hg10 mi
8:53 am80 °FPartly sunny.7 mph71%29.96 "Hg10 mi
9:53 am83 °FPartly sunny.9 mph65%29.96 "Hg10 mi
10:53 am85 °FScattered clouds.6 mph59%29.96 "Hg10 mi
11:53 am90 °FScattered clouds.6 mph50%29.94 "Hg10 mi
12:53 pm93 °FScattered clouds.7 mph42%29.92 "Hg10 mi
1:53 pm95 °FScattered clouds.5 mph39%29.90 "Hg10 mi
2:53 pm98 °FPartly sunny.5 mph35%29.89 "Hg10 mi
3:53 pm99 °FPartly sunny.5 mph33%29.86 "Hg10 mi
4:53 pm101 °FPartly sunny.10 mph28%29.85 "Hg10 mi
5:53 pm100 °FScattered clouds.6 mph29%29.83 "Hg10 mi
6:53 pm98 °FScattered clouds.7 mph29%29.82 "Hg10 mi
7:53 pm95 °FPassing clouds.10 mph31%29.82 "Hg10 mi
8:53 pm92 °FPassing clouds.14 mph36%29.83 "Hg10 mi
9:53 pm89 °FPassing clouds.16 mph45%29.85 "Hg10 mi
10:53 pm86 °FPassing clouds.14 mph49%29.88 "Hg10 mi
11:53 pm84 °FPassing clouds.10 mph49%29.88 "Hg10 mi
Weather by CustomWeather, © 2018

See weather overview